{"data":{"norad_id":68759,"epoch":"2026-05-24T23:04:23.107584Z","epoch_age_seconds":81852,"freshness":"FRESH","line1":"1 68759U 26083G   26144.96137856  .00001460  00000+0  10431-3 0  9998","line2":"2 68759  97.8081 282.0662 0012524 134.5505 225.6747 15.06070872  5692","mean_motion":15.06070872,"eccentricity":0.0012524,"inclination_deg":97.8081,"raan_deg":282.0662,"arg_perigee_deg":134.5505,"mean_anomaly_deg":225.6747,"bstar":0.00010431,"rev_number":569,"period_min":95.613030354125,"perigee_km":539.54590145498,"apogee_km":556.89504164973,"semimajor_km":6926.3574715524,"source":"CELESTRAK","updated_at":"2026-05-25T13:38:08.060177Z"}}